TimeCST,TemperatureF,Dew PointF,Humidity,Sea Level PressureIn,VisibilityMPH,Wind Direction,Wind SpeedMPH,Gust SpeedMPH,PrecipitationIn,Events,Conditions,WindDirDegrees,DateUTC
12:58 AM,34.0,33.1,96,30.27,8.0,Calm,Calm,-,N/A,,Clear,0,2013-03-08 06:58:00
1:58 AM,33.1,30.9,92,30.27,8.0,NW,3.5,-,N/A,,Clear,320,2013-03-08 07:58:00
2:58 AM,33.1,32.0,96,30.27,7.0,Calm,Calm,-,N/A,,Clear,0,2013-03-08 08:58:00
3:58 AM,30.9,30.0,96,30.28,8.0,NNW,3.5,-,N/A,,Clear,330,2013-03-08 09:58:00
4:58 AM,30.9,30.0,96,30.29,6.0,Calm,Calm,-,N/A,,Clear,0,2013-03-08 10:58:00
5:58 AM,30.9,30.0,96,30.31,6.0,NW,3.5,-,N/A,,Clear,310,2013-03-08 11:58:00
6:58 AM,34.0,32.0,92,30.34,9.0,Calm,Calm,-,N/A,,Clear,0,2013-03-08 12:58:00
7:58 AM,42.1,35.1,76,30.36,10.0,Calm,Calm,-,N/A,,Clear,0,2013-03-08 13:58:00
8:58 AM,48.0,35.1,61,30.35,10.0,NE,4.6,-,N/A,,Clear,40,2013-03-08 14:58:00
9:58 AM,55.0,34.0,45,30.33,10.0,North,5.8,-,N/A,,Clear,10,2013-03-08 15:58:00
10:58 AM,61.0,32.0,34,30.31,-9999.0,North,-9999.0,-,N/A,,Clear,0,2013-03-08 16:58:00
11:58 AM,63.0,28.9,28,30.30,10.0,ENE,6.9,-,N/A,,Clear,60,2013-03-08 17:58:00
12:58 PM,64.9,28.9,26,30.26,10.0,NE,6.9,-,N/A,,Clear,40,2013-03-08 18:58:00
1:58 PM,66.9,26.1,21,30.24,10.0,ENE,4.6,-,N/A,,Clear,60,2013-03-08 19:58:00
2:58 PM,68.0,27.0,21,30.22,10.0,NE,4.6,-,N/A,,Clear,50,2013-03-08 20:58:00
3:58 PM,68.0,24.1,19,30.22,10.0,Calm,Calm,-,N/A,,Clear,0,2013-03-08 21:58:00
4:58 PM,66.9,25.0,21,30.22,10.0,Calm,Calm,-,N/A,,Clear,0,2013-03-08 22:58:00
5:58 PM,60.1,30.0,32,30.22,6.0,ENE,3.5,-,N/A,,Haze,70,2013-03-08 23:58:00
6:58 PM,53.1,39.9,61,30.22,10.0,Calm,Calm,-,N/A,,Clear,0,2013-03-09 00:58:00
7:58 PM,48.9,39.9,71,30.23,9.0,Calm,Calm,-,N/A,,Clear,0,2013-03-09 01:58:00
8:58 PM,48.9,37.9,66,30.22,8.0,Calm,Calm,-,N/A,,Clear,0,2013-03-09 02:58:00
9:58 PM,46.0,39.0,76,30.22,8.0,Calm,Calm,-,N/A,,Clear,0,2013-03-09 03:58:00
10:58 PM,43.0,37.9,82,30.22,8.0,Calm,Calm,-,N/A,,Clear,0,2013-03-09 04:58:00
11:58 PM,43.0,37.9,82,30.21,9.0,Calm,Calm,-,N/A,,Clear,0,2013-03-09 05:58:00